Location: ?????????
(41.2393°N, 22.9479°E)
Time: 21:52:41
(UTC+00:00)

SPOT 1/Viking Rocket - Pass Details

Date: 17 November 2025
Orbit: 773 x 789 km, 98.2° (Epoch: 11 December)

Event Time Altitude Azimuth Distance (km) Brightness Sun altitude
Rises 17:08:29 0° 178° (S) 3,249 6.8 -22.7°
Reaches altitude 10° 17:10:50 10° 183° (S) 2,328 6.1 -23.1°
Maximum altitude 17:15:51 53° 260° (W) 962 4.3 -24.1°
Drops below altitude 10° 17:20:56 10° 337° (NNW) 2,354 6.2 -25.0°
Sets 17:23:20 0° 343° (NNW) 3,289 6.9 -25.5°
